Starlink 31236

operational
NORAD ID: 58841 Int'l Des: 2024-017 Owner: SPXS Country: US Constellation: starlink
LEOCIRCULAR

Über Starlink 31236

Beschreibung wird geladen...

Live-Position

3D-Globus wird geladen...

Nächste Überflüge

Höhenverlauf

Altitude vs Time

uPlot chart will show altitude changes over time

Zweizeiliger Elementsatz

1 58841U 24017R 25305.73315495 -.00010305 00000-0 -33578-3 0 9992
2 58841 53.1609 78.7938 0001115 59.4836 300.6275 15.30249495100463
Epoch: 1. Nov. 2025 • Age: 49 hours

Aktueller Status

Höhe 479.2 km
Geschwindigkeit 7.63 km/s
Subsatellitenpunkt -13.19°S, 69.66°W
Startdatum 24. Jan. 2024
Alter 1.7 years
Typ internet

Technische Details

Klassifizierung Payload
Masse 730.00 kg
Trockenmasse 700.00 kg
Gesamtmasse 730.00 kg
Länge 0.30 m
Durchmesser 4.10 m
Spannweite 29.00 m
Form Box + pan
Hersteller SPXS
Bus-Typ Starlink V2M
Phasenstatus In Orbit
Besitzer/Staat SPXS/US

Große Konstellationen

Loading constellations...